Location: ???????
(55.2903°N, 39.1554°E)
Time: 19:01:30
(UTC+00:00)

ATLAS 5 CENTAUR R/B - Pass Details

Date: 14 April 2024
Orbit: 421 x 1170 km, 63.3° (Epoch: 18 May)

Event Time Altitude Azimuth Distance (km) Brightness Sun altitude
Rises 00:53:31 0° 308° (NW) 2,804 4.8 -11.9°
Reaches altitude 10° 00:55:33 10° 309° (NW) 1,998 4.0 -11.7°
Maximum altitude 01:00:06 87° 37° (NE) 732 1.9 -11.1°
Drops below altitude 10° 01:05:50 10° 129° (SE) 2,490 4.9 -10.5°
Sets 01:08:36 0° 130° (SE) 3,554 5.7 -10.1°
